TimeCST,TemperatureF,Dew PointF,Humidity,Sea Level PressureIn,VisibilityMPH,Wind Direction,Wind SpeedMPH,Gust SpeedMPH,PrecipitationIn,Events,Conditions,WindDirDegrees,DateUTC
12:56 AM,51.1,46.0,83,30.22,10.0,North,11.5,-,N/A,,Clear,10,2011-11-24 06:56:00
1:56 AM,50.0,45.0,83,30.22,10.0,North,12.7,-,N/A,,Clear,10,2011-11-24 07:56:00
2:56 AM,48.9,45.0,86,30.23,10.0,NNE,8.1,-,N/A,,Clear,20,2011-11-24 08:56:00
3:56 AM,48.0,44.1,86,30.24,10.0,NNE,6.9,-,N/A,,Clear,30,2011-11-24 09:56:00
4:56 AM,46.9,44.1,90,30.27,10.0,NNE,8.1,-,N/A,,Clear,30,2011-11-24 10:56:00
5:56 AM,46.9,44.1,90,30.28,10.0,NE,5.8,-,N/A,,Clear,40,2011-11-24 11:56:00
6:56 AM,46.9,44.1,90,30.30,8.0,NNE,5.8,-,N/A,,Clear,30,2011-11-24 12:56:00
7:56 AM,50.0,45.0,83,30.32,8.0,NE,11.5,-,N/A,,Clear,40,2011-11-24 13:56:00
8:56 AM,54.0,45.0,72,30.33,10.0,ENE,8.1,-,N/A,,Clear,70,2011-11-24 14:56:00
9:56 AM,60.8,44.6,55,30.32,10.0,NE,10.4,-,N/A,,Clear,50,2011-11-24 15:56:00
10:56 AM,62.6,44.6,52,30.31,10.0,ENE,8.1,-,N/A,,Clear,60,2011-11-24 16:56:00
11:56 AM,64.9,44.1,47,30.28,10.0,NE,6.9,-,N/A,,Clear,50,2011-11-24 17:56:00
12:56 PM,66.2,44.6,46,30.27,10.0,Calm,Calm,-,N/A,,Clear,0,2011-11-24 18:56:00
1:56 PM,68.0,45.0,43,30.26,10.0,NNE,6.9,-,N/A,,Clear,30,2011-11-24 19:56:00
2:56 PM,68.0,43.0,40,30.26,10.0,Calm,Calm,-,N/A,,Clear,0,2011-11-24 20:56:00
3:56 PM,68.0,44.1,42,30.27,10.0,NNE,4.6,-,N/A,,Clear,30,2011-11-24 21:56:00
4:56 PM,60.8,46.4,59,30.27,10.0,North,3.5,-,N/A,,Clear,10,2011-11-24 22:56:00
5:56 PM,55.0,48.0,77,30.28,10.0,NE,3.5,-,N/A,,Clear,40,2011-11-24 23:56:00
6:56 PM,55.0,46.9,74,30.28,10.0,ENE,5.8,-,N/A,,Clear,70,2011-11-25 00:56:00
7:56 PM,51.1,46.0,83,30.28,10.0,ENE,4.6,-,N/A,,Clear,60,2011-11-25 01:56:00
8:56 PM,50.0,45.0,83,30.29,10.0,Calm,Calm,-,N/A,,Clear,0,2011-11-25 02:56:00
9:56 PM,48.9,44.1,83,30.29,10.0,Calm,Calm,-,N/A,,Clear,0,2011-11-25 03:56:00
10:56 PM,46.4,42.8,87,30.29,10.0,NE,4.6,-,N/A,,Clear,50,2011-11-25 04:56:00
11:56 PM,48.0,42.1,80,30.27,10.0,ENE,5.8,-,N/A,,Clear,70,2011-11-25 05:56:00